Date String (YYYY-MM-DD hh:mm:ss) UTC,Instrument flags,Ambient pressure (hPa),Sample flow (lpm),Bypass flow (lpm),Sample temperature (°C),Ambient temperature (°C),ASC tube jacket temperature (°C),LED temperature (°C),Box temperature (°C),Sample RH (%),Span deviation,Mass concentration (μg/m³),Mass concentration (μg/m³),Mass concentration (μg/m³)
DateTimeUTC,F1_M11,P_M11,Q1_M11,Q2_M11,T1_M11,T2_M11,T3_M11,T4_M11,T5_M11,U1_M11,ZSPAN_M11,X0_M11,X2_M11,X1_M11
2021-08-29 02:00:00,,0828.2,5.00,0.00,29.4,28.2,00.0,38.3,31.2,24.2,0002.4,0031.35,0017.28,0015.97
2021-08-29 02:01:00,,0828.3,5.00,0.00,29.3,26.2,00.0,38.3,30.6,24.4,0002.5,0031.03,0017.28,0016.02
2021-08-29 02:02:00,,0828.1,5.00,0.00,29.1,25.4,00.0,38.3,30.3,24.7,0002.7,0030.56,0017.36,0016.09
2021-08-29 02:03:00,,0828.2,5.01,0.00,29.0,25.7,00.0,38.2,30.4,24.9,0002.7,0030.23,0017.45,0016.13
2021-08-29 02:04:00,,0828.2,4.99,0.00,29.0,26.2,00.0,38.2,30.6,25.2,0002.5,0029.72,0017.46,0016.18
2021-08-29 02:05:00,,0828.2,5.00,0.00,29.0,26.7,00.0,38.2,30.7,25.9,0002.4,0029.90,0017.51,0016.23
2021-08-29 02:06:00,,0828.3,5.01,0.00,29.0,27.1,00.0,38.2,30.8,25.8,0002.2,0030.07,0017.55,0016.28
2021-08-29 02:07:00,,0828.3,4.99,0.00,29.1,27.5,00.0,38.2,30.9,26.0,0002.2,0029.43,0017.70,0016.37
2021-08-29 02:08:00,,0828.3,5.00,0.00,29.1,27.8,00.0,38.2,31.0,26.5,0002.4,0029.54,0017.83,0016.46
2021-08-29 02:09:00,,0828.5,5.00,0.00,29.2,28.0,00.0,38.2,31.1,26.7,0002.4,0029.94,0017.95,0016.56
2021-08-29 02:10:00,,0828.4,5.00,0.00,29.2,28.3,00.0,38.2,31.2,27.1,0002.3,0029.02,0018.07,0016.67
2021-08-29 02:11:00,,0828.5,4.99,0.00,29.3,28.4,00.0,38.2,31.2,26.7,0002.4,0028.98,0018.24,0016.80
2021-08-29 02:12:00,,0828.5,5.01,0.00,29.3,28.6,00.0,38.2,31.3,26.7,0002.4,0029.67,0018.46,0016.94
2021-08-29 02:13:00,,0828.5,4.99,0.00,29.4,28.7,00.0,38.3,31.3,26.8,0002.3,0030.51,0018.64,0017.09
2021-08-29 02:14:00,,0828.9,5.00,0.00,29.5,28.6,00.0,38.3,31.3,26.5,0002.3,0032.40,0018.78,0017.22
2021-08-29 02:15:00,,0828.7,5.00,0.00,29.4,27.0,00.0,38.3,30.9,26.4,0002.5,0033.71,0019.02,0017.34
2021-08-29 02:16:00,,0828.6,5.00,0.00,29.2,25.5,00.0,38.3,30.4,26.8,0002.5,0033.95,0019.16,0017.45
2021-08-29 02:17:00,,0828.6,5.00,0.00,29.1,25.5,00.0,38.3,30.4,27.1,0002.5,0034.38,0019.30,0017.54
2021-08-29 02:18:00,,0828.5,4.99,0.00,29.0,26.0,00.0,38.2,30.5,27.5,0002.4,0034.74,0019.38,0017.58
2021-08-29 02:19:00,,0828.8,5.00,0.00,29.0,26.5,00.0,38.2,30.7,27.6,0002.5,0034.32,0019.40,0017.59
2021-08-29 02:20:00,,0829.0,5.00,0.00,29.0,27.0,00.0,38.2,30.8,27.9,0002.4,0033.10,0019.40,0017.55
2021-08-29 02:21:00,,0829.0,5.01,0.00,29.1,27.3,00.0,38.2,30.9,28.2,0002.6,0033.61,0019.40,0017.53
2021-08-29 02:22:00,,0829.1,4.99,0.00,29.1,27.7,00.0,38.2,31.0,28.1,0002.6,0034.24,0019.39,0017.49
2021-08-29 02:23:00,,0828.9,4.99,0.00,29.2,27.9,00.0,38.2,31.0,28.1,0002.5,0034.36,0019.34,0017.42
2021-08-29 02:24:00,,0828.9,5.01,0.00,29.2,28.2,00.0,38.2,31.1,28.4,0002.4,0033.94,0019.24,0017.33
2021-08-29 02:25:00,,0829.1,5.00,0.00,29.3,28.4,00.0,38.2,31.2,28.3,0002.2,0032.41,0019.16,0017.24
2021-08-29 02:26:00,,0829.0,4.99,0.00,29.3,28.5,00.0,38.3,31.3,28.2,0002.1,0031.12,0019.03,0017.18
2021-08-29 02:27:00,,0828.7,5.00,0.00,29.4,28.6,00.0,38.3,31.3,28.2,0002.1,0031.52,0018.96,0017.11
2021-08-29 02:28:00,,0828.7,4.99,0.00,29.4,28.7,00.0,38.3,31.4,28.2,0002.2,0030.81,0018.92,0017.05
2021-08-29 02:29:00,,0828.8,5.01,0.00,29.4,27.8,00.0,38.3,31.1,28.2,0002.4,0031.10,0018.87,0016.99
2021-08-29 02:30:00,,0829.2,5.00,0.00,29.3,25.9,00.0,38.3,30.5,28.7,0002.1,0030.73,0018.76,0016.95
2021-08-29 02:31:00,,0829.3,5.00,0.00,29.1,25.4,00.0,38.3,30.4,28.9,0002.3,0031.16,0018.64,0016.87
2021-08-29 02:32:00,,0829.0,5.00,0.00,29.0,25.8,00.0,38.3,30.5,29.3,0002.3,0031.23,0018.50,0016.80
2021-08-29 02:33:00,,0828.9,5.00,0.00,29.0,26.3,00.0,38.2,30.6,29.5,0002.1,0030.34,0018.38,0016.72
2021-08-29 02:34:00,,0828.9,4.99,0.00,29.0,26.8,00.0,38.2,30.8,29.6,0001.9,0029.69,0018.25,0016.64
2021-08-29 02:35:00,,0828.8,5.01,0.00,29.1,27.2,00.0,38.2,30.9,29.7,0001.9,0029.62,0018.14,0016.56
2021-08-29 02:36:00,,0828.9,5.00,0.00,29.1,27.5,00.0,38.2,30.9,29.6,0002.1,0030.55,0018.01,0016.46
2021-08-29 02:37:00,,0828.9,5.01,0.00,29.1,27.8,00.0,38.2,31.0,29.6,0002.1,0030.76,0017.89,0016.34
2021-08-29 02:38:00,,0829.0,4.99,0.00,29.2,28.1,00.0,38.2,31.1,29.4,0002.1,0030.13,0017.76,0016.26
2021-08-29 02:39:00,,0829.0,5.00,0.00,29.2,28.3,00.0,38.2,31.2,29.1,0002.0,0030.16,0017.66,0016.20
2021-08-29 02:40:00,,0829.1,5.02,0.00,29.3,28.4,00.0,38.2,31.2,28.9,0001.9,0029.84,0017.68,0016.16
2021-08-29 02:41:00,,0829.0,4.98,0.00,29.3,28.5,00.0,38.3,31.3,28.8,0001.8,0029.83,0017.65,0016.12
2021-08-29 02:42:00,,0829.1,5.00,0.00,29.4,28.7,00.0,38.3,31.3,28.7,0001.7,0030.40,0017.70,0016.12
2021-08-29 02:43:00,,0829.1,5.00,0.00,29.5,28.8,00.0,38.3,31.4,28.4,0001.4,0029.77,0017.71,0016.09
2021-08-29 02:44:00,,0829.0,4.99,0.00,29.5,27.7,00.0,38.4,31.1,28.4,0001.4,0029.08,0017.73,0016.06
2021-08-29 02:45:00,,0829.1,5.01,0.00,29.3,25.9,00.0,38.3,30.7,28.7,0001.5,0029.03,0017.71,0016.05
2021-08-29 02:46:00,,0829.1,5.00,0.00,29.2,25.5,00.0,38.3,30.5,29.0,0001.7,0028.98,0017.74,0016.03
2021-08-29 02:47:00,,0829.1,4.99,0.00,29.1,25.9,00.0,38.3,30.6,29.0,0001.8,0028.10,0017.77,0016.07
2021-08-29 02:48:00,,0829.1,5.02,0.00,29.0,26.3,00.0,38.2,30.7,29.2,0001.9,0028.33,0017.83,0016.10
2021-08-29 02:49:00,,0829.1,5.01,0.00,29.1,26.8,00.0,38.2,30.8,29.2,0001.7,0028.30,0017.84,0016.07
2021-08-29 02:50:00,,0829.2,5.00,0.00,29.1,27.2,00.0,38.2,30.8,29.2,0001.8,0028.16,0017.85,0016.04
2021-08-29 02:51:00,,0829.3,5.01,0.00,29.1,27.6,00.0,38.2,30.9,29.2,0002.0,0027.40,0017.71,0015.99
2021-08-29 02:52:00,,0829.2,5.01,0.00,29.2,27.8,00.0,38.2,31.0,29.0,0002.2,0027.21,0017.66,0015.93
2021-08-29 02:53:00,,0829.3,4.99,0.00,29.2,28.1,00.0,38.2,31.1,29.0,0002.3,0026.10,0017.57,0015.84
2021-08-29 02:54:00,,0829.2,5.00,0.00,29.3,28.3,00.0,38.2,31.2,28.8,0002.3,0026.28,0017.50,0015.76
2021-08-29 02:55:00,,0829.5,5.00,0.00,29.3,28.4,00.0,38.3,31.2,28.6,0002.3,0027.43,0017.42,0015.71
2021-08-29 02:56:00,,0829.3,5.00,0.00,29.4,28.5,00.0,38.3,31.3,28.4,0002.3,0027.46,0017.31,0015.65
2021-08-29 02:57:00,,0829.5,4.99,0.00,29.4,28.7,00.0,38.3,31.3,28.3,0002.2,0027.13,0017.27,0015.60
2021-08-29 02:58:00,,0829.5,5.01,0.00,29.5,28.7,00.0,38.4,31.3,28.2,0002.1,0027.79,0017.19,0015.53
2021-08-29 02:59:00,,0829.5,4.98,0.00,29.4,27.6,00.0,38.4,31.1,28.4,0001.7,0027.67,0017.12,0015.46
